Tracking 33845 objects as of 17-Apr-2026
HD Live streaming from Space Station
objects crossing your sky now

KINEIS-1E

Track KINEIS-1E now!
10-day predictions


NORAD ID: 60083
Int'l Code: 2024-114E
Perigee: 633.1 km
Apogee: 636.6 km
Inclination: 97.9 °
Period: 97.3 minutes
Semi major axis: 7005 km
RCS: Unknown
Launch date: June 20, 2024
Source: France (FR)
Launch site: Rocket Lab Launch Complex (RLLC)
Your satellite tracking list
Your tracking list is empty




NASA's NSSDC Master Catalog

Two Line Element Set (TLE):
1 60083U 24114E   26106.53361441 -.00001659  00000-0 -21000-3 0  9990
2 60083  97.9415 130.8158 0002501  80.2255 279.9239 14.80508792 98260
Source of the keplerian elements: AFSPC